This is the latest recevied weather packets stored in our database for station/object DM3DP. If no packets are shown the sender has not sent any weather packets the latest 10 day(s).
| Time | Temp. | Humidity | Pressure | Rain* | Wind** | Luminosity | Snow |
|---|---|---|---|---|---|---|---|
| 1777749603 | 18.89° C | 80% | 1013 hPa | 0 mm | - | 0 W/m² | - |
| 1777749274 | 19.44° C | 79% | 1013 hPa | 0 mm | - | 0 W/m² | - |
| 1777748943 | 19.44° C | 79% | 1013 hPa | 0 mm | - | 0 W/m² | - |
| 1777748613 | 19.44° C | 78% | 1013 hPa | 0 mm | - | 0 W/m² | - |
| 1777748284 | 19.44° C | 77% | 1013.1 hPa | 0 mm | - | 0 W/m² | - |
| 1777747953 | 19.44° C | 78% | 1013.1 hPa | 0 mm | - | 0 W/m² | - |
| 1777747624 | 19.44° C | 78% | 1013.1 hPa | 0 mm | - | 0 W/m² | - |
| 1777747293 | 19.44° C | 80% | 1013 hPa | 0 mm | - | 0 W/m² | - |
| 1777746963 | 19.44° C | 79% | 1012.9 hPa | 0 mm | - | 1 W/m² | - |
| 1777746633 | 19.44° C | 79% | 1012.4 hPa | 0 mm | - | 3 W/m² | - |
| 1777746304 | 20° C | 78% | 1012.4 hPa | 0 mm | - | 4 W/m² | - |
| 1777745974 | 20° C | 77% | 1012.4 hPa | 0 mm | - | 5 W/m² | - |
| 1777745643 | 20° C | 77% | 1012.4 hPa | 0 mm | - | 7 W/m² | - |
| 1777745313 | 21.11° C | 77% | 1012.4 hPa | 0 mm | - | 9 W/m² | - |
| 1777744983 | 21.11° C | 75% | 1012.5 hPa | 0 mm | - | 9 W/m² | - |
| 1777744653 | 21.11° C | 75% | 1012.5 hPa | 0 mm | - | 12 W/m² | - |
| 1777744323 | 21.11° C | 73% | 1012.4 hPa | 0 mm | - | 18 W/m² | - |
| 1777743993 | 21.11° C | 72% | 1012.4 hPa | 0 mm | - | 21 W/m² | - |
| 1777743663 | 22.22° C | 68% | 1012.5 hPa | 0 mm | - | 24 W/m² | - |
| 1777743333 | 22.22° C | 65% | 1012.5 hPa | 0 mm | - | 31 W/m² | - |
| 1777743004 | 22.22° C | 64% | 1012.6 hPa | 0 mm | - | 31 W/m² | - |
| 1777742674 | 22.22° C | 64% | 1012.8 hPa | 0 mm | - | 42 W/m² | - |
| 1777742343 | 22.22° C | 64% | 1012.9 hPa | 0 mm | - | 42 W/m² | - |
| 1777742013 | 22.22° C | 64% | 1012.9 hPa | 0 mm | - | 35 W/m² | - |
| 1777741684 | 22.78° C | 62% | 1012.9 hPa | 0 mm | - | 21 W/m² | - |
* Rain latest hour (hover to see other rain measurements)
** Current wind speed in m/s (hover to see current wind gust speed)